This is the latest recevied weather packets stored in our database for station/object N4PWG. If no packets are shown the sender has not sent any weather packets the latest 10 day(s).
| Time | Temp. | Humidity | Pressure | Rain* | Wind** | Luminosity | Snow |
|---|---|---|---|---|---|---|---|
| 1777859228 | 16.11° C | 57% | 1031.1 hPa | 0 mm | - | 0 W/m² | - |
| 1777858925 | 16.11° C | 59% | 1031.1 hPa | 0 mm | - | 0 W/m² | - |
| 1777858623 | 16.67° C | 57% | 1031.2 hPa | 0 mm | - | 0 W/m² | - |
| 1777858320 | 16.67° C | 56% | 1031.1 hPa | 0 mm | - | 0 W/m² | - |
| 1777858017 | 16.67° C | 56% | 1031.2 hPa | 0 mm | - | 0 W/m² | - |
| 1777857715 | 16.67° C | 55% | 1030.8 hPa | 0 mm | - | 0 W/m² | - |
| 1777857411 | 17.22° C | 54% | 1031 hPa | 0 mm | - | 0 W/m² | - |
| 1777857108 | 17.78° C | 53% | 1030.9 hPa | 0 mm | - | 0 W/m² | - |
| 1777856804 | 17.78° C | 52% | 1030.8 hPa | 0 mm | - | 0 W/m² | - |
| 1777856500 | 18.33° C | 53% | 1030.9 hPa | 0 mm | - | 0 W/m² | - |
| 1777856197 | 18.89° C | 49% | 1031.1 hPa | 0 mm | - | 0 W/m² | - |
| 1777855893 | 18.89° C | 48% | 1031.1 hPa | 0 mm | - | 0 W/m² | - |
| 1777855592 | 18.89° C | 48% | 1031.1 hPa | 0 mm | - | 1 W/m² | - |
| 1777855289 | 19.44° C | 47% | 1030.8 hPa | 0 mm | - | 2 W/m² | - |
| 1777854985 | 20° C | 47% | 1030.8 hPa | 0 mm | - | 3 W/m² | - |
| 1777854681 | 20.56° C | 45% | 1031 hPa | 0 mm | - | 7 W/m² | - |
| 1777854378 | 21.11° C | 44% | 1030.9 hPa | 0 mm | - | 10 W/m² | - |
| 1777854076 | 21.67° C | 44% | 1031.1 hPa | 0 mm | - | 13 W/m² | - |
| 1777853774 | 21.67° C | 43% | 1031.2 hPa | 0 mm | - | 16 W/m² | - |
| 1777853469 | 22.22° C | 43% | 1031.4 hPa | 0 mm | - | 19 W/m² | - |
| 1777853167 | 22.22° C | 43% | 1031.3 hPa | 0 mm | - | 24 W/m² | - |
| 1777852864 | 22.22° C | 41% | 1031.2 hPa | 0 mm | - | 29 W/m² | - |
| 1777852563 | 22.78° C | 40% | 1031.2 hPa | 0 mm | - | 34 W/m² | - |
| 1777852259 | 22.78° C | 41% | 1031.4 hPa | 0 mm | - | 38 W/m² | - |
| 1777851957 | 23.33° C | 40% | 1031.5 hPa | 0 mm | - | 42 W/m² | - |
* Rain latest hour (hover to see other rain measurements)
** Current wind speed in m/s (hover to see current wind gust speed)